Tracking 19634 objects as of 21-May-2019
HD Live streaming from Space Station
objects crossing your sky now

COSMOS 2022 (GLONASS)

Track COSMOS 2022 (GLONASS) now!
COSMOS 2022 (GLONASS) is classified as:


NORAD ID: 20024
Int'l Code: 1989-039A
Perigee: 19,118.8 km
Apogee: 19,155.2 km
Inclination: 65.3 °
Period: 675.7 minutes
Semi major axis: 25508 km
RCS: 4.9605 m2 (large)
Launch date: May 31, 1989
Source: Commonwealth of Independent States (former USSR) (CIS)
Launch site: TYURATAM MISSILE AND SPACE COMPLEX (TTMTR)
aabbcc
Your satellite tracking list
Your tracking list is empty




NASA's NSSDC Master Catalog

Two Line Element Set (TLE):
1 20024U 89039A   19140.48790292 -.00000072  00000-0  00000+0 0  9992
2 20024  65.3485  38.8069 0007137 223.2250 318.8726  2.13102194233241
Source of the keplerian elements: AFSPC